This demonstration page uses our WeatherBlox Daily Observations layout. Learn more.

Left ArrowRight Arrow

53.62937, 11.41316

Hourly Observations for May 18, 2019

Temp ( °F °C ) Dew Point ( °F °C ) Humidity (%) Winds ( mph kmh ) Pressure ( in mb ) Visibility ( mi km ) Precip ( " mm )
6:50 am 06:50 Mostly Cloudy with Mist and Fog 54 12 52 11 94 94 ENE 5 7 29.80 1009 3 4 N/A
7:20 am 07:20 Mostly Cloudy with Mist and Fog 54 12 54 12 100 100 NE 6 9 29.80 1009 3 5 N/A
7:50 am 07:50 Mostly Cloudy with Mist and Fog 55 13 54 12 94 94 ENE 7 11 29.80 1009 3 5 N/A
8:20 am 08:20 Partly Cloudy 57 14 54 12 88 88 ENE 9 15 29.80 1009 4 7 N/A
8:50 am 08:50 Mostly Cloudy 57 14 54 12 88 88 ENE 8 13 29.80 1009 5 8 N/A
9:20 am 09:20 Partly Cloudy 61 16 54 12 77 77 ENE 9 15 29.80 1009 30 48 N/A
9:50 am 09:50 Mostly Cloudy 63 17 55 13 77 77 ENE 7 11 29.80 1009 30 48 N/A
10:20 am 10:20 Partly Cloudy 63 17 54 12 73 73 E 7 11 29.80 1009 30 48 N/A
10:50 am 10:50 Mostly Sunny 64 18 55 13 73 73 E 7 11 29.80 1009 30 48 N/A
11:20 am 11:20 Mostly Sunny 66 19 54 12 64 64 E 8 13 29.80 1009 30 48 N/A
11:50 am 11:50 Mostly Sunny 66 19 55 13 68 68 NE 10 17 29.77 1008 30 48 N/A
12:20 pm 12:20 Mostly Sunny 68 20 55 13 64 64 NE 9 15 29.77 1008 30 48 N/A
12:50 pm 12:50 Partly Cloudy 66 19 55 13 68 68 NE 9 15 29.77 1008 30 48 N/A
1:20 pm 13:20 Partly Cloudy 68 20 55 13 64 64 NE 10 17 29.77 1008 30 48 N/A
1:50 pm 13:50 Partly Cloudy 68 20 55 13 64 64 NNE 10 17 29.77 1008 30 48 N/A
2:20 pm 14:20 Partly Cloudy 68 20 54 12 60 60 NNE 8 13 29.74 1007 30 48 N/A
2:50 pm 14:50 Partly Cloudy 66 19 54 12 64 64 NNE 12 19 29.74 1007 30 48 N/A
3:20 pm 15:20 Partly Cloudy 66 19 54 12 64 64 NNE 10 17 29.74 1007 30 48 N/A
3:50 pm 15:50 Mostly Sunny 68 20 54 12 60 60 NNE 10 17 29.74 1007 7 11 N/A
4:20 pm 16:20 Mostly Sunny 72 22 55 13 57 57 NNE 10 17 29.74 1007 7 11 N/A
4:50 pm 16:50 Mostly Sunny 72 22 55 13 57 57 NNE 10 17 29.74 1007 7 11 N/A
5:20 pm 17:20 Mostly Sunny 70 21 54 12 57 57 NE 13 20 29.71 1006 7 11 N/A
5:50 pm 17:50 Mostly Sunny 70 21 55 13 60 60 NE 9 15 29.71 1006 7 11 N/A
6:20 pm 18:20 Partly Cloudy with Light Showers 72 22 57 14 61 61 NE 15 24 29.71 1006 30 48 N/A
6:50 pm 18:50 Partly Cloudy with Nearby Thunderstorms 64 18 61 16 88 88 NE 6 9 29.74 1007 30 48 N/A
7:20 pm 19:20 Partly Cloudy with Showers Nearby 64 18 59 15 83 83 ENE 7 11 29.74 1007 30 48 N/A
7:50 pm 19:50 Mostly Sunny 64 18 59 15 83 83 N 7 11 29.74 1007 7 11 N/A
8:20 pm 20:20 Mostly Sunny 61 16 55 13 83 83 N 7 11 29.74 1007 7 11 N/A
8:50 pm 20:50 Mostly Sunny 59 15 54 12 82 82 N 3 6 29.74 1007 7 11 N/A

Powered by AerisWeather